EDT,Max TemperatureF,Mean TemperatureF,Min TemperatureF,Max Dew PointF,MeanDew PointF,Min DewpointF,Max Humidity, Mean Humidity, Min Humidity, Max Sea Level PressureIn, Mean Sea Level PressureIn, Min Sea Level PressureIn, Max VisibilityMiles, Mean VisibilityMiles, Min VisibilityMiles, Max Wind SpeedMPH, Mean Wind SpeedMPH, Max Gust SpeedMPH,PrecipitationIn, CloudCover, Events, WindDirDegrees
2012-10-1,70,62,55,61,55,50,87,74,56,29.98,29.94,29.89,10,10,10,13,4,25,0.00,6,Rain,121
2012-10-2,82,74,69,74,70,60,100,89,71,29.95,29.91,29.87,10,8,1,14,8,,0.07,6,Rain-Thunderstorm,116
2012-10-3,84,78,71,74,72,67,100,88,56,30.12,30.01,29.94,10,7,0,9,2,24,0.00,6,Fog,193
2012-10-4,80,72,63,73,67,61,94,79,58,30.15,30.11,30.08,10,10,9,9,6,,0.01,4,Rain,226
2012-10-5,81,69,59,61,57,53,90,67,45,30.14,30.08,29.98,10,10,10,12,5,,0.00,1,,226
2012-10-6,84,72,60,61,55,40,81,61,42,30.04,29.92,29.83,10,10,10,21,9,28,0.00,3,Rain,243
2012-10-7,61,56,50,48,45,40,89,72,48,30.16,30.09,30.03,10,10,4,14,10,,0.19,7,Rain,351
2012-10-8,55,51,48,47,44,39,89,75,61,30.29,30.21,30.16,10,10,10,15,10,23,0.01,6,Rain,355
2012-10-9,62,57,52,56,53,48,94,86,75,30.16,30.12,30.05,10,6,2,15,10,17,0.05,8,Rain,341
2012-10-10,71,62,55,57,52,41,94,74,45,30.07,29.98,29.90,10,8,5,25,6,32,0.01,6,,256
2012-10-11,61,52,44,42,36,31,89,51,35,30.30,30.22,30.10,10,10,10,22,13,30,0.00,0,,291
2012-10-12,69,57,45,48,40,30,89,57,31,30.43,30.23,30.14,10,10,10,21,6,26,0.00,1,,310
2012-10-13,59,50,44,46,31,23,75,47,26,30.52,30.44,30.34,10,10,10,13,9,20,0.00,1,,81
2012-10-14,75,64,54,56,50,47,80,62,38,30.32,30.17,29.97,10,10,10,13,7,22,0.00,2,,179
2012-10-15,72,66,57,63,58,51,94,75,64,29.96,29.79,29.68,10,10,6,22,10,32,0.24,5,Rain,209
2012-10-16,66,55,45,49,44,39,90,66,40,29.93,29.87,29.79,10,10,10,14,10,20,0.00,1,,286
2012-10-17,68,55,44,52,48,41,93,75,43,30.03,29.97,29.94,10,10,9,10,5,16,0.00,3,,164
2012-10-18,70,62,55,63,55,50,90,74,55,29.97,29.91,29.82,10,10,10,17,8,24,0.00,5,Rain,136
2012-10-19,78,72,64,66,64,53,94,83,64,29.81,29.73,29.64,10,10,4,13,7,21,0.06,5,Rain,150
2012-10-20,68,58,51,51,46,42,77,59,47,29.93,29.78,29.69,10,10,10,8,6,,0.00,2,,278
2012-10-21,68,56,46,41,40,37,80,55,36,30.14,30.06,29.94,10,10,10,15,10,,0.00,1,,289
2012-10-22,71,58,45,45,41,38,80,61,31,30.21,30.15,30.12,10,10,10,12,6,,0.00,0,,257
2012-10-23,78,65,53,58,50,43,72,60,40,30.15,30.10,30.06,10,10,10,10,3,,0.00,3,,171
2012-10-24,75,68,60,61,55,51,87,68,50,30.13,30.10,30.07,10,10,8,10,5,,0.00,3,,171
2012-10-25,72,66,62,61,59,57,94,83,66,30.22,30.18,30.14,10,8,4,9,6,,0.00,5,,88
2012-10-26,73,67,62,61,60,59,94,82,66,30.20,30.12,30.03,10,10,8,10,7,,0.00,7,,45
2012-10-27,68,63,60,58,55,52,84,74,61,30.01,29.91,29.82,10,10,10,16,11,22,0.00,4,,28
2012-10-28,61,58,55,54,52,49,89,83,67,29.82,29.64,29.50,10,8,3,29,19,38,1.54,8,Rain,6
2012-10-29,55,52,46,52,48,43,94,87,82,29.48,29.09,28.68,10,4,2,40,27,56,6.00,8,Rain,294
2012-10-30,46,42,39,43,38,36,87,82,74,29.49,29.22,28.80,10,10,8,23,15,38,0.78,8,Rain,199
2012-10-31,54,48,42,39,38,36,82,70,52,29.66,29.58,29.49,10,10,10,14,6,,0.00,6,,221